Location: Newark
(48.3831°N, 4.1956°E)
Time: 18:03:11
(UTC+00:00)

Envisat - Pass Details

Date: 20 November 2019
Orbit: 764 x 766 km, 98.1° (Epoch: 11 December)

Event Time Altitude Azimuth Distance (km) Brightness Sun altitude
Rises 18:18:51 0° 188° (S) 3,220 6.4 -22.8°
Reaches altitude 10° 18:21:18 10° 197° (SSW) 2,298 5.7 -23.2°
Maximum altitude 18:25:59 37° 264° (W) 1,185 4.5 -24.0°
Drops below altitude 10° 18:30:41 10° 331° (NNW) 2,314 5.8 -24.8°
Sets 18:33:11 0° 340° (NNW) 3,244 6.5 -25.2°
